This is the latest recevied weather packets stored in our database for station/object N8DMH-13. If no packets are shown the sender has not sent any weather packets the latest 10 day(s).
| Time | Temp. | Humidity | Pressure | Rain* | Wind** | Luminosity | Snow |
|---|---|---|---|---|---|---|---|
| 1777839193 | 15.56° C | 61% | 1004.9 hPa | 0 mm | - | - | - |
| 1777838893 | 16.11° C | 61% | 1004.9 hPa | 0 mm | - | - | - |
| 1777838563 | 16.11° C | 60% | 1005 hPa | 0 mm | - | - | - |
| 1777838233 | 15.56° C | 62% | 1005 hPa | 0 mm | - | - | - |
| 1777837933 | 15.56° C | 62% | 1005 hPa | 0 mm | - | - | - |
| 1777837633 | 15° C | 62% | 1005.1 hPa | 0 mm | - | - | - |
| 1777837303 | 15° C | 61% | 1005.2 hPa | 0 mm | - | - | - |
| 1777837003 | 15° C | 62% | 1005.2 hPa | 0 mm | - | - | - |
| 1777836674 | 14.44° C | 62% | 1005.2 hPa | 0 mm | - | - | - |
| 1777836343 | 14.44° C | 65% | 1005.5 hPa | 0 mm | - | - | - |
| 1777836042 | 13.89° C | 66% | 1005.6 hPa | 0.25 mm | - | - | - |
| 1777835742 | 13.89° C | 65% | 1005.6 hPa | 0.25 mm | - | - | - |
| 1777835412 | 13.89° C | 68% | 1005.6 hPa | 0.25 mm | - | - | - |
| 1777835112 | 13.33° C | 68% | 1005.8 hPa | 0.25 mm | - | - | - |
| 1777834782 | 13.89° C | 71% | 1006 hPa | 0.25 mm | - | - | - |
| 1777834452 | 13.33° C | 71% | 1006 hPa | 0.25 mm | - | - | - |
| 1777834152 | 12.78° C | 73% | 1006 hPa | 0.25 mm | - | - | - |
| 1777833852 | 11.67° C | 73% | 1006.2 hPa | 0.25 mm | - | - | - |
| 1777833523 | 11.67° C | 73% | 1006.3 hPa | 0.25 mm | - | - | - |
| 1777833222 | 11.11° C | 74% | 1006.3 hPa | 0.25 mm | - | - | - |
| 1777832891 | 11.11° C | 72% | 1006.4 hPa | 0.25 mm | - | - | - |
| 1777832591 | 11.11° C | 72% | 1006.6 hPa | 0.25 mm | - | - | - |
| 1777832291 | 11.11° C | 70% | 1006.7 hPa | 0 mm | - | - | - |
| 1777831961 | 11.11° C | 69% | 1006.7 hPa | 0 mm | - | - | - |
| 1777831661 | 11.67° C | 69% | 1006.7 hPa | 0 mm | - | - | - |
* Rain latest hour (hover to see other rain measurements)
** Current wind speed in m/s (hover to see current wind gust speed)